Regional Weather Roundup
Issued by NWS

Home | Current Version | Previous Version | Graphics & Text | Print | Product List | Glossary On
Versions: 1 2 3 4 5 6 7 8 9 10 11 12 13 14 15 16 17 18 19 20 21 22 23 24 25 26 27 28 29 30 31 32 33 34 35 36 37 38 39 40 41 42 43 44 45 46 47 48 49 50
000
ASUS43 KTOP 210259
RWRKS

WEATHER ROUNDUP FOR KANSAS
NATIONAL WEATHER SERVICE GOODLAND KS
1000 PM CDT FRI APR 20 2018

NOTE:  "FAIR" INDICATES FEW OR NO CLOUDS BELOW 12,000 FEET WITH NO
SIGNIFICANT WEATHER AND/OR OBSTRUCTIONS TO VISIBILITY.

KSZ001>006-013>018-027>032-041>047-210400-
NORTHWEST KANSAS

CITY           SKY/WX    TMP DP  RH WIND       PRES   REMARKS
GOODLAND       LGT RAIN  39  38  96 E12       30.12S WCI  32
HAYS           LGT RAIN  47  44  90 VRB5      30.22R
HILL CITY      LGT RAIN  46  44  93 E10       30.21R
RUSSELL        LGT RAIN  50  42  74 NE5       30.20R
$$

KSZ061>065-074>080-084>089-210400-
SOUTHWEST KANSAS

CITY           SKY/WX    TMP DP  RH WIND       PRES   REMARKS
DODGE CITY     RAIN      46  43  89 N3        30.16R FOG
GREAT BEND     RAIN      53  37  54 S5        30.20R
LIBERAL        LGT RAIN  45  44  97 E15       30.11S
$$

KSZ066>073-081>083-090>101-210400-
SOUTHEAST KANSAS

CITY           SKY/WX    TMP DP  RH WIND       PRES   REMARKS
CHANUTE        MOCLDY    60  29  30 E8        30.17R
COFFEYVILLE    PTCLDY    57  34  41 E8        30.14R
HUTCHINSON     CLOUDY    58  30  34 E12       30.16R
MEDICINE LODGE   N/A     53  39  59 NE10G18   30.11R
PARSONS        MOCLDY    59  31  34 VRB6      30.15F
WICHITA INTL   LGT RAIN  58  36  43 NE7       30.15R
WICHITA JABRA  CLOUDY    57  30  35 NE8       30.14R
WICHITA MCCONL CLOUDY    59  28  30 E8        30.14R
WINFIELD       CLOUDY    58  31  35 E6        30.13R
$$

KSZ007>012-019>026-033>040-048>060-102>105-210400-
NORTHEAST KANSAS

CITY           SKY/WX    TMP DP  RH WIND       PRES   REMARKS
CONCORDIA      CLOUDY    55  26  32 E12       30.21R
EMPORIA        PTCLDY    56  29  35 E10       30.17S
LAWRENCE       CLOUDY    56  30  37 NE10      30.24R
MANHATTAN      CLOUDY    57  27  31 NE13      30.21S
OLATHE IND     CLOUDY    58  26  29 E12G21    30.23S
OLATHE EXE     CLOUDY    56  26  31 E12       30.23S
SALINA         LGT RAIN  59  29  31 E12       30.19R
TOPEKA BILLARD CLOUDY    56  30  37 E9        30.23S
TOPEKA FORBES  PTCLDY    57  29  34 NE8       30.22S
$$




USA.gov is the U.S. government's official web portal to all federal, state and local government web resources and services.